Погода в Порвоо

Финляндия     60°23′08″N   25°39′38″E
темп.,
°C
ветер,
м/с
пор.,
м/с
влажн.,
%
обл.,
%
осадки,
мм/ч
давл.,
гПа
погр.,
м
21 апреля, ср
ср2100:00+4в257097 0.0 1014115
03:00+3в22825 0.0 101239
06:00+2в228821 0.0 101040
09:00+7вюв35636 0.0 1008417
12:00+10юв32454 0.0 10061399
15:00+11юв334079 0.0 10031865
18:00+10ююв324567 0.0 10021163
21:00+4юв3677100 0.0 1002219
22 апреля, чт
чт2200:00+2юв129626 0.0 100173
03:00+2юв22965 0.0 100140
06:00+1вюв11966 0.0 100010
09:00+7ююв237160 0.0 1001367
12:00+9ююз445622 0.0 1002917
15:00+9юз475065 0.0 10031136
18:00+9юз46371 0.0 10031605
21:00+4ююв25709 0.0 1003114
23 апреля, пт
пт2300:00+4всв1176100 0.0 100210
03:00+3с1184100 0.2 100112
06:00+3вюв2388100 0.3 1001352
09:00+4ююз347747 0.4 1002679
12:00+5ююв347190 0.3 10021033
15:00+6ююв335992 0.8 10031280
18:00+6ю226294 0.1 1004848
21:00+3ю2580100 0.1 1005332
24 апреля, сб
сб2400:000ю249697 0.0 100586
03:00+2юв2597100 0.4 1004450
06:00+2вюв2597100 0.3 1004435
09:00+2всв2596100 0.6 1006450
12:00+7вюв126098 0.4 10071171
15:00+5ссв1375100 2.1 1007757
18:00+6ссв356399 1.4 10071404
21:00+3ссз379477 1.9 1007394
25 апреля, вс
вс2500:00+3сз2697100 0.3 1006493
03:00+2с41297100 4.3 1005582
06:00+2ссз61291100 0.8 1004997
09:00+2ссз61290100 1.2 10041107
12:00+3ссз61083100 0.4 10031011
15:00+1ссз41092100 0.8 1004687
18:00+2ссз51192100 0.1 1005617
21:00+2ссз51293100 0.2 1006566